Temperature
14 14 14 14 14 14 15 15 15 15 15 15 15 15 15 15 15 15 15 15 15 15 15 15 15 15 15 15 15 15 15 15 15 14 14 14 14 14 14 14 14 14 14
14 14 14 14 14 14 14 14 14 14 14 14 14 15 15 15 15 15 15 14 15 14 15 15 14 14 14 14 14 14 14 14 14 14 14 14 14 14 14 14 14 14 14
14 14 14 14 14 14 14 14 14 14 14 14 14 14 14 14 14 14 14 14 14 14 14 14 14 14 14 14 14 14 14 14 14 14 14 14 14 14 14 14 13 13 14
14 14 14 14 14 14 14 14 14 14 14 14 14 14 14 14 14 14 14 14 14 14 14 14 14 14 14 14 14 14 14 14 14 14 14 14 14 13 13 13 13 13 13
14 14 14 13 13 14 14 14 14 13 13 14 14 14 14 14 14 13 14 14 14 14 14 14 14 14 14 14 14 14 14 14 14 14 14 14 13 13 13 13 13 13 13
14 14 13 13 13 13 13 13 13 13 13 13 13 13 13 13 13 13 13 14 14 14 14 14 14 14 14 13 13 13 13 13 13 13 13 13 13 13 13 13 13 13 13
13 13 13 13 13 13 13 13 13 13 13 13 13 13 13 13 13 13 13 13 13 13 13 13 13 13 13 13 13 13 13 13 13 13 13 13 13 13 13 13 13 13 13
13 13 13 13 13 13 13 13 13 13 13 13 13 13 13 13 13 13 13 13 13 13 13 13 13 13 13 13 13 13 13 13 13 13 13 13 13 13 12 12 12 13 13
13 13 13 13 13 13 13 13 13 13 13 13 13 13 13 13 13 13 13 13 13 13 13 13 13 13 12 12 12 12 12 12 13 13 13 13 13 12 12 12 12 12 12
12 12 12 12 13 13 13 13 13 12 12 12 12 12 12 12 13 13 13 13 13 12 12 13 12 12 12 12 12 12 12 12 12 12 12 12 12 12 12 12 12 12 12
12 12 12 12 12 12 12 12 12 12 12 12 12 12 12 12 12 12 12 12 12 12 12 12 12 12 12 12 12 12 12 12 12 12 12 12 12 12 12 12 12 12 12
12 12 11 11 11 11 11 12 12 12 12 12 12 12 12 12 12 12 12 12 12 12 12 12 12 12 12 12 12 12 11 12 12 12 12 12 12 12 12 12 11 11 11
12 11 11 11 11 11 11 11 11 11 11 11 11 11 11 12 12 12 12 12 12 12 12 12 11 11 11 11 11 11 11 11 11 11 11 11 11 11 11 11 11 11 11
11 11 11 11 11 11 11 11 11 11 11 11 11 11 11 11 11 11 11 11 11 11 11 11 11 11 11 11 11 11 11 11 11 11 11 11 11 11 11 11 11 11 11
11 11 11 11 11 11 11 11 10 10 10 10 11 10 10 11 11 11 10 10 11 11 11 11 11 11 11 11 11 11 11 11 11 11 11 11 11 11 11 11 11 11 10
11 11 11 10 10 10 10 10 10 10 10 10 10 10 10 10 10 10 10 10 10 10 10 10 10 10 10 10 10 10 10 10 10 10 10 10 10 10 10 10 10 10 10
10 10 10 10 10 10 10 10 10 10 10 10 10 10 10 10 10 9 10 10 10 10 10 10 10 10 10 10 10 10 10 10 10 10 10 10 10 10 10 10 10 10 10
10 10 10 10 9 9 9 9 9 9 9 9 9 9 9 9 9 9 9 9 9 9 9 9 9 9 9 9 9 10 10 10 10 10 10 10 10 10 10 10 10 9 9
9 9 9 9 9 9 9 9 9 9 9 9 8 8 8 8 8 8 8 9 9 9 9 9 9 9 9 9 9 9 9 9 9 9 9 9 9 9 9 9 9 9 9
9 9 9 9 9 8 8 8 8 8 8 8 8 8 8 8 8 8 8 8 8 8 8 8 8 8 8 8 8 9 9 9 9 9 9 9 9 9 9 8 8 8 8
8 8 8 8 8 8 8 8 8 8 8 7 7 7 7 7 7 7 7 7 7 8 8 8 8 8 8 8 8 8 8 8 8 8 8 8 8 8 8 8 8 8 8
8 8 8 7 8 7 7 7 7 7 7 7 7 7 7 7 6 7 7 7 7 7 7 7 7 7 7 7 6 6 6 7 7 7 7 7 7 7 7 7 7 7 7
7 7 7 7 7 7 7 7 7 7 6 6 6 6 6 6 6 6 6 6 6 6 6 7 6 6 6 6 6 5 5 5 5 6 6 6 6 6 7 7 7 7 7
6 6 6 6 6 6 6 6 6 6 6 6 6 5 5 5 5 5 5 5 6 6 6 6 6 6 6 5 5 5 5 5 4 4 5 5 6 6 6 6 6 6 6
6 6 6 6 6 6 6 5 5 5 5 5 5 5 5 5 5 5 5 5 5 5 5 5 5 5 5 5 5 4 4 4 4 4 4 4 5 5 5 5 6 6 6
5 5 5 5 5 5 5 5 5 5 4 4 4 4 4 4 4 4 4 4 4 4 5 5 5 4 4 4 4 4 4 4 4 3 3 3 4 4 5 5 5 5 5
Wind_Speed
3 4 8 8 9 10 10 10 10 10 10 10 9 10 10 10 10 10 10 10 10 10 10 10 10 10 10 10 10 10 9 9 9 9 9 8 8 8 8 8 8 8 9
6 6 9 9 10 10 10 10 10 10 9 10 10 9 9 9 9 9 9 9 9 9 9 9 9 9 9 9 9 9 9 8 8 8 8 8 7 7 7 7 7 7 7
7 8 9 10 10 10 9 9 9 9 9 9 9 9 8 8 8 8 8 8 8 8 8 8 8 8 8 8 7 8 8 7 7 7 7 6 6 6 6 6 6 6 6
9 8 8 10 10 10 9 9 8 8 8 8 8 8 8 7 7 7 7 7 7 7 7 7 7 7 7 6 6 6 6 6 6 6 5 5 5 5 5 5 5 4 4
8 8 8 10 9 9 9 8 8 7 7 7 7 7 7 7 7 6 6 6 6 6 6 6 5 6 6 5 5 5 5 5 6 6 5 4 4 4 4 4 4 3 3
8 8 9 10 9 8 8 7 7 7 7 7 7 6 6 6 6 5 5 5 6 6 5 5 4 5 4 4 4 4 4 5 5 5 4 3 3 3 3 3 3 2 2
7 8 9 9 9 8 7 7 7 6 6 6 6 5 5 5 5 5 4 4 5 5 4 4 4 3 3 3 3 3 3 3 4 4 3 2 2 2 2 2 2 2 1
8 7 8 8 8 7 7 6 6 6 5 5 5 4 4 5 5 4 4 3 3 4 4 3 3 2 2 2 2 2 2 2 3 2 2 0 1 1 1 2 2 1 1
8 7 6 6 6 6 6 5 5 5 5 4 4 4 4 4 4 4 3 3 2 2 3 2 2 2 1 1 1 1 1 1 2 1 1 0 1 2 2 2 2 2 2
6 6 5 5 5 5 5 5 5 4 4 3 3 3 3 3 3 2 2 2 1 1 1 2 2 1 0 0 1 0 0 0 1 1 1 2 3 3 3 3 2 3 3
4 3 4 4 4 4 4 4 4 4 3 2 2 3 3 2 2 1 1 1 0 0 0 1 1 1 1 0 1 1 1 0 1 2 2 3 4 5 5 4 4 4 5
4 3 3 3 3 3 2 3 3 2 2 1 1 2 2 2 2 1 1 0 0 1 1 1 2 1 1 1 2 1 1 2 2 3 4 5 6 6 6 6 6 6 6
5 4 3 3 3 3 2 2 1 1 1 1 2 2 2 3 3 3 2 1 1 0 1 1 2 2 2 2 2 2 2 2 2 3 5 6 7 7 7 7 7 7 7
4 4 3 3 3 3 3 2 2 1 1 1 1 2 2 2 2 2 2 2 1 1 1 1 2 2 2 2 2 2 3 2 3 4 5 7 8 8 8 8 8 8 8
4 3 3 3 3 3 2 2 2 1 1 1 1 1 2 1 0 1 1 1 1 1 1 1 2 2 2 2 2 2 3 4 4 5 5 8 9 9 9 9 9 9 9
4 4 3 3 3 3 2 2 1 1 1 1 1 1 1 1 1 0 1 1 1 2 1 1 2 2 2 2 3 3 3 4 5 5 6 7 9 9 10 10 9 9 9
4 4 4 3 2 2 2 2 2 1 2 1 1 1 1 1 1 1 1 1 2 2 2 1 2 1 2 2 3 4 3 4 5 5 6 6 6 7 9 10 10 10 10
4 4 3 3 2 2 2 2 1 1 2 1 1 1 1 1 1 0 1 2 2 2 1 1 1 1 2 2 3 4 3 4 5 5 5 5 5 5 6 8 10 11 11
4 4 3 2 3 2 2 1 1 1 1 1 1 1 1 1 1 1 1 2 1 1 1 1 1 1 2 3 3 4 3 4 4 4 4 4 4 5 5 7 9 10 11
3 3 3 2 2 2 1 1 1 0 1 1 1 2 2 2 1 1 1 2 1 1 1 1 1 1 2 2 3 4 4 4 3 3 4 3 3 4 5 5 6 7 10
2 3 2 2 1 2 1 1 1 1 2 1 1 2 2 2 2 1 1 2 2 2 2 2 1 2 1 1 1 3 4 3 3 3 3 3 3 4 4 5 5 5 6
2 2 2 2 2 2 2 2 2 1 1 2 1 1 2 2 2 2 1 2 2 2 2 2 1 1 1 0 0 1 2 3 2 3 2 2 3 3 3 5 5 5 5
1 2 2 2 2 2 2 1 1 1 1 1 1 1 2 2 2 2 2 2 2 2 3 3 3 3 2 2 1 1 1 3 3 3 3 2 3 3 3 4 4 5 5
2 2 2 2 2 2 2 2 2 2 2 2 2 2 2 2 2 2 2 2 2 2 3 3 3 2 3 3 2 2 2 2 2 3 3 3 3 4 4 4 4 5 5
1 1 1 1 2 2 2 3 3 2 2 2 2 2 2 2 3 3 3 2 2 3 3 3 3 3 3 3 3 2 2 2 3 3 5 4 3 3 4 4 4 4 5
1 1 1 0 1 2 2 3 3 3 2 2 2 2 3 2 2 3 3 2 2 2 3 4 4 4 4 4 3 2 2 2 2 3 4 5 5 4 4 3 3 4 5
Wind_Direction
174 159 129 124 114 108 106 107 105 103 100 97 98 100 99 98 97 98 98 96 95 94 93 89 87 85 81 82 85 90 94 92 88 85 86 87 88 92 94 91 87 83 84
154 142 126 122 115 111 105 103 103 103 103 98 97 101 103 102 101 102 101 98 97 96 93 89 85 84 83 83 84 85 87 90 87 82 79 80 83 90 99 96 95 92 91
132 129 127 121 116 113 108 104 103 102 101 101 99 100 103 105 103 104 103 99 96 95 94 90 87 86 86 85 86 89 88 85 84 81 77 72 79 90 98 99 98 94 95
126 124 125 121 118 114 111 107 103 104 101 99 101 101 101 105 105 102 103 101 98 96 96 94 91 90 89 87 88 92 91 88 81 77 75 73 76 90 95 101 103 100 98
116 119 124 120 119 118 114 110 106 102 103 102 99 101 102 101 103 101 100 102 103 101 99 100 100 98 94 87 88 95 90 85 81 72 74 77 75 92 98 101 103 106 110
116 118 125 122 119 117 117 116 113 106 102 104 103 100 100 101 98 102 104 109 108 106 104 104 106 106 100 92 94 104 99 84 73 73 74 81 88 101 113 114 113 117 123
120 117 125 124 122 119 117 116 117 111 105 102 102 104 101 98 99 94 106 118 120 119 113 106 113 112 106 101 100 111 109 86 72 69 64 81 117 129 133 137 143 152 167
125 117 121 123 122 122 123 120 113 111 110 108 105 106 107 102 99 99 93 113 129 130 124 119 125 123 110 108 108 119 116 99 80 61 44 91 161 153 173 193 192 197 223
120 113 107 117 122 126 127 126 122 116 111 111 111 104 99 101 98 100 98 93 107 134 141 142 142 137 125 114 91 100 119 115 84 38 342 267 225 225 231 229 217 230 240
114 117 112 108 113 118 129 132 131 128 118 109 109 104 93 93 94 98 102 94 104 113 160 172 180 186 212 303 27 40 183 130 104 287 266 245 244 243 246 244 243 247 245
117 126 129 127 121 123 133 135 141 142 132 116 122 105 85 78 93 102 114 107 81 128 233 221 218 242 287 332 347 320 290 226 237 247 240 242 249 250 254 251 253 259 258
158 163 154 150 150 145 149 135 141 144 140 134 131 107 74 63 59 60 111 124 292 258 266 270 262 282 307 320 304 285 245 259 251 250 243 249 254 254 256 253 253 258 261
168 168 170 170 160 158 150 127 119 107 103 98 110 100 81 68 54 45 45 33 4 22 5 324 326 322 307 290 271 249 235 240 237 250 249 253 257 259 260 257 254 258 261
157 169 172 162 151 155 148 141 135 115 101 98 124 111 100 78 51 46 37 20 16 9 7 354 335 313 301 283 261 248 244 241 245 251 251 256 261 264 264 261 258 259 264
155 166 175 165 160 158 151 157 139 153 160 155 149 134 127 108 87 29 7 9 349 343 346 327 311 294 285 279 273 260 250 250 250 254 261 261 260 260 262 263 262 264 266
175 179 177 171 170 158 164 166 167 172 169 159 164 197 157 145 148 272 297 312 315 300 299 293 291 277 271 275 274 270 262 258 252 252 256 261 263 262 260 261 263 266 267
188 185 179 182 164 159 172 171 166 172 156 162 194 214 194 175 187 233 249 282 296 294 299 321 319 309 293 289 282 280 272 268 261 256 255 255 257 260 265 263 266 268 269
178 181 189 183 170 176 174 161 167 167 159 173 198 203 213 202 216 221 248 266 290 294 296 283 288 293 292 290 288 283 278 272 265 262 258 254 250 252 260 265 268 270 272
173 175 178 177 181 186 181 158 150 166 178 193 198 198 213 211 220 211 254 261 279 293 271 275 297 268 274 291 287 284 282 276 264 265 261 252 249 252 253 262 266 268 271
161 156 158 166 177 173 154 125 124 152 218 208 205 208 208 213 227 230 252 263 269 265 256 237 259 288 264 279 295 298 286 277 261 256 259 259 256 257 259 259 261 266 270
140 142 146 157 164 142 149 165 175 219 232 220 229 216 213 222 227 236 249 253 256 240 241 233 239 269 283 293 322 319 309 286 261 252 260 261 266 275 269 261 258 260 269
159 165 156 174 180 181 193 193 189 199 235 228 233 236 229 230 238 242 232 238 242 241 248 236 221 240 274 260 327 330 321 318 312 298 281 260 269 286 285 284 269 262 266
159 194 195 197 196 200 196 156 85 61 7 335 242 237 248 236 242 251 245 247 252 232 233 234 223 223 238 256 200 181 229 263 307 296 294 287 288 296 295 299 288 281 276
218 223 219 205 197 198 175 158 157 193 236 255 246 252 268 253 250 255 246 239 247 247 242 237 236 240 216 236 249 229 226 226 258 295 293 290 296 294 289 294 286 277 280
228 238 248 227 201 190 177 177 174 206 238 272 271 262 266 264 258 257 248 238 236 242 247 245 241 243 231 230 232 240 252 259 237 248 279 287 297 286 285 284 276 274 281
309 319 316 307 234 203 186 187 181 197 221 249 266 255 260 262 265 266 259 245 247 245 242 244 233 231 236 236 235 229 230 236 241 243 267 285 290 293 292 287 273 269 279
Height
1514 1515 1516 1517 1518 1519 1519 1520 1520 1521 1521 1522 1522 1522 1523 1523 1523 1523 1524 1524 1524 1525 1525 1525 1526 1526 1526 1526 1526 1526 1526 1526 1527 1527 1527 1527 1527 1527 1528 1528 1528 1528 1528
1512 1514 1515 1517 1517 1518 1519 1519 1520 1521 1521 1521 1522 1522 1522 1523 1523 1523 1523 1524 1524 1525 1525 1525 1525 1526 1526 1526 1526 1526 1526 1526 1527 1527 1527 1527 1527 1528 1528 1528 1528 1528 1528
1512 1514 1515 1516 1517 1518 1518 1519 1520 1520 1521 1521 1521 1522 1522 1522 1523 1523 1523 1523 1524 1524 1524 1525 1525 1525 1525 1525 1526 1526 1526 1526 1526 1527 1527 1527 1527 1527 1527 1528 1528 1528 1528
1512 1513 1514 1515 1516 1517 1518 1518 1519 1520 1520 1521 1521 1521 1522 1522 1522 1522 1523 1523 1523 1524 1524 1524 1524 1524 1525 1525 1525 1525 1526 1526 1526 1526 1526 1526 1527 1527 1527 1527 1527 1527 1528
1511 1513 1514 1515 1516 1516 1517 1518 1518 1519 1520 1520 1520 1521 1521 1521 1521 1522 1522 1522 1523 1523 1523 1523 1524 1524 1524 1524 1525 1525 1525 1526 1526 1526 1526 1526 1526 1526 1526 1526 1527 1527 1527
1510 1512 1513 1514 1515 1516 1516 1517 1517 1518 1519 1519 1520 1520 1520 1520 1520 1521 1521 1521 1522 1522 1522 1523 1523 1523 1523 1524 1524 1524 1524 1525 1525 1525 1525 1525 1525 1526 1526 1526 1526 1526 1526
1509 1511 1512 1513 1514 1515 1515 1516 1516 1517 1518 1518 1518 1519 1519 1519 1519 1520 1520 1520 1521 1521 1521 1522 1522 1522 1522 1523 1523 1523 1524 1524 1524 1524 1524 1524 1524 1525 1525 1525 1525 1525 1525
1509 1510 1511 1512 1513 1514 1514 1515 1515 1516 1516 1517 1517 1517 1518 1518 1518 1518 1519 1519 1519 1520 1520 1520 1521 1521 1521 1521 1522 1522 1522 1522 1522 1522 1522 1523 1523 1523 1523 1523 1523 1524 1524
1508 1509 1510 1511 1512 1512 1513 1514 1514 1514 1515 1515 1516 1516 1516 1516 1516 1517 1517 1517 1518 1518 1519 1519 1519 1520 1520 1520 1520 1520 1521 1521 1521 1521 1521 1521 1521 1522 1522 1522 1522 1522 1522
1507 1508 1509 1509 1510 1511 1511 1512 1513 1513 1513 1514 1514 1514 1514 1514 1515 1515 1515 1516 1516 1517 1517 1517 1518 1518 1518 1518 1518 1519 1519 1519 1519 1519 1519 1519 1519 1520 1520 1520 1520 1520 1520
1505 1506 1507 1508 1508 1509 1510 1510 1511 1511 1512 1512 1512 1512 1513 1513 1513 1513 1513 1514 1514 1515 1515 1515 1516 1516 1516 1516 1516 1516 1517 1517 1517 1517 1517 1517 1517 1518 1518 1518 1518 1518 1518
1503 1504 1505 1506 1507 1507 1508 1508 1508 1509 1509 1510 1510 1510 1510 1511 1511 1511 1511 1512 1512 1512 1512 1513 1513 1513 1513 1514 1514 1514 1514 1514 1515 1515 1515 1515 1515 1515 1515 1515 1515 1515 1515
1501 1502 1503 1504 1505 1505 1506 1506 1506 1507 1507 1507 1508 1508 1508 1508 1508 1509 1509 1509 1509 1509 1510 1510 1510 1510 1511 1511 1511 1511 1512 1512 1512 1512 1512 1512 1512 1512 1512 1512 1512 1512 1512
1499 1500 1501 1501 1502 1503 1503 1504 1504 1504 1505 1505 1505 1505 1506 1506 1506 1506 1506 1506 1507 1507 1507 1507 1507 1507 1508 1508 1508 1508 1508 1508 1509 1509 1509 1509 1509 1509 1509 1509 1509 1509 1509
1496 1497 1498 1499 1500 1500 1501 1501 1502 1502 1502 1502 1503 1503 1503 1503 1503 1503 1503 1503 1504 1504 1504 1504 1504 1504 1504 1504 1505 1505 1505 1505 1505 1505 1505 1505 1506 1506 1506 1505 1505 1505 1505
1494 1494 1495 1496 1497 1498 1498 1498 1499 1499 1500 1500 1500 1500 1500 1500 1500 1500 1500 1501 1501 1501 1501 1501 1501 1501 1501 1501 1501 1501 1501 1501 1501 1501 1501 1501 1501 1502 1502 1502 1501 1501 1501
1491 1492 1492 1493 1494 1495 1495 1495 1496 1496 1496 1497 1497 1497 1497 1497 1497 1497 1497 1497 1498 1498 1498 1498 1498 1497 1497 1497 1497 1497 1497 1497 1497 1497 1497 1497 1497 1497 1497 1497 1497 1497 1497
1488 1489 1490 1490 1491 1492 1492 1492 1492 1493 1493 1493 1494 1494 1494 1494 1494 1494 1494 1494 1494 1495 1494 1494 1494 1494 1494 1493 1493 1493 1493 1493 1493 1493 1493 1493 1493 1493 1493 1493 1493 1492 1492
1485 1485 1486 1487 1487 1488 1489 1489 1489 1489 1490 1490 1490 1490 1490 1490 1491 1491 1491 1491 1491 1491 1491 1491 1491 1490 1490 1489 1489 1489 1489 1488 1488 1488 1488 1489 1489 1489 1488 1488 1488 1488 1488
1482 1482 1482 1483 1484 1485 1485 1485 1486 1486 1486 1486 1487 1487 1487 1487 1487 1487 1487 1488 1488 1487 1487 1487 1487 1487 1487 1486 1485 1485 1484 1484 1484 1484 1484 1484 1484 1484 1484 1484 1483 1483 1483
1478 1479 1479 1480 1480 1481 1481 1481 1482 1482 1482 1483 1483 1483 1483 1484 1484 1484 1484 1484 1484 1484 1484 1483 1483 1483 1483 1482 1482 1480 1480 1480 1479 1479 1479 1480 1480 1480 1480 1479 1478 1478 1477
1475 1476 1476 1477 1477 1477 1478 1478 1478 1478 1479 1479 1480 1480 1480 1480 1480 1480 1480 1480 1480 1480 1480 1480 1480 1479 1479 1479 1478 1477 1476 1476 1475 1475 1475 1475 1475 1475 1475 1474 1474 1473 1472
1472 1472 1473 1473 1474 1474 1475 1475 1475 1476 1475 1475 1475 1476 1476 1476 1476 1476 1476 1476 1476 1476 1476 1476 1476 1476 1475 1475 1476 1476 1475 1473 1471 1470 1471 1471 1471 1471 1470 1470 1469 1468 1467
1469 1470 1470 1470 1470 1471 1471 1471 1471 1471 1471 1471 1471 1471 1472 1472 1472 1472 1472 1472 1472 1472 1472 1472 1472 1472 1472 1471 1472 1472 1473 1471 1471 1467 1466 1467 1467 1466 1465 1465 1464 1463 1462
1467 1467 1467 1467 1467 1467 1467 1468 1468 1468 1468 1468 1467 1467 1468 1468 1468 1468 1468 1468 1468 1468 1468 1468 1468 1468 1468 1468 1467 1467 1467 1467 1467 1466 1462 1461 1461 1461 1460 1460 1459 1458 1457
1464 1464 1464 1463 1463 1463 1464 1464 1464 1464 1464 1465 1464 1463 1464 1464 1464 1464 1464 1464 1464 1464 1464 1464 1464 1464 1464 1464 1463 1463 1463 1463 1462 1462 1460 1457 1456 1455 1455 1455 1454 1453 1453